Total_Precipitation_Accumulation
0.13 0.13 0.17 0.21 0.24 0.20 0.15 0.13 0.12 0.11 0.10 0.10 0.10 0.10 0.12 0.14 0.16 0.18 0.20 0.25 0.28 0.29 0.34 0.40 0.44 0.47 0.51 0.49 0.47 0.43 0.41 0.46 0.45 0.12 0.04 0.06 0.15 0.20 0.21 0.21 0.23 0.22 0.19
0.11 0.12 0.14 0.18 0.25 0.25 0.17 0.11 0.11 0.11 0.11 0.10 0.13 0.17 0.19 0.21 0.20 0.21 0.24 0.34 0.46 0.46 0.44 0.45 0.47 0.51 0.56 0.59 0.60 0.54 0.44 0.38 0.43 0.28 0.08 0.06 0.12 0.22 0.28 0.26 0.25 0.23 0.20
0.12 0.11 0.12 0.17 0.22 0.27 0.25 0.14 0.10 0.10 0.11 0.12 0.16 0.26 0.30 0.33 0.33 0.30 0.33 0.39 0.54 0.67 0.69 0.69 0.64 0.59 0.61 0.61 0.64 0.62 0.53 0.44 0.40 0.38 0.21 0.11 0.13 0.22 0.34 0.37 0.33 0.28 0.24
0.09 0.12 0.10 0.12 0.15 0.20 0.26 0.22 0.14 0.09 0.09 0.14 0.17 0.25 0.34 0.46 0.56 0.58 0.59 0.57 0.60 0.68 0.76 0.81 0.82 0.83 0.79 0.74 0.73 0.68 0.64 0.60 0.53 0.51 0.39 0.25 0.20 0.25 0.41 0.50 0.44 0.36 0.32
0.06 0.09 0.09 0.08 0.10 0.15 0.21 0.23 0.20 0.14 0.09 0.11 0.14 0.17 0.25 0.52 0.92 0.94 0.84 0.76 0.64 0.57 0.56 0.60 0.70 0.86 0.95 1.00 1.04 0.95 0.90 0.94 0.86 0.78 0.65 0.50 0.39 0.42 0.53 0.58 0.64 0.54 0.45
0.04 0.05 0.07 0.08 0.09 0.11 0.15 0.21 0.22 0.19 0.16 0.12 0.10 0.12 0.19 0.46 0.89 0.95 0.73 0.55 0.41 0.39 0.41 0.40 0.44 0.60 0.72 0.85 1.00 1.03 1.09 1.24 1.28 1.17 0.97 0.78 0.55 0.49 0.56 0.71 0.83 0.88 0.74
0.02 0.03 0.06 0.07 0.08 0.09 0.09 0.14 0.20 0.20 0.19 0.17 0.12 0.10 0.12 0.31 0.71 0.79 0.57 0.34 0.24 0.23 0.25 0.26 0.27 0.37 0.49 0.52 0.64 0.74 0.84 1.01 1.24 1.34 1.28 0.95 0.68 0.54 0.68 0.84 0.88 0.96 0.84
0.02 0.03 0.04 0.06 0.06 0.08 0.09 0.11 0.13 0.17 0.19 0.18 0.14 0.10 0.09 0.18 0.57 0.74 0.56 0.27 0.18 0.16 0.18 0.17 0.15 0.20 0.34 0.47 0.58 0.60 0.61 0.74 1.03 1.27 1.40 1.21 0.96 0.82 0.95 1.17 1.26 1.24 1.06
0.02 0.03 0.03 0.04 0.05 0.07 0.08 0.09 0.11 0.13 0.15 0.16 0.15 0.11 0.09 0.10 0.39 0.74 0.66 0.31 0.18 0.14 0.17 0.18 0.14 0.13 0.30 0.48 0.51 0.48 0.43 0.50 0.67 0.96 1.17 1.22 1.19 1.22 1.32 1.57 1.72 1.66 1.49
0.01 0.02 0.03 0.04 0.04 0.05 0.06 0.07 0.09 0.11 0.12 0.13 0.14 0.12 0.11 0.09 0.24 0.66 0.82 0.42 0.23 0.16 0.15 0.16 0.23 0.26 0.38 0.45 0.42 0.44 0.50 0.46 0.45 0.51 0.61 0.70 0.79 0.86 1.08 1.38 1.57 1.65 1.63
0.01 0.02 0.03 0.03 0.03 0.04 0.06 0.07 0.09 0.11 0.11 0.11 0.12 0.11 0.11 0.11 0.15 0.44 0.83 0.65 0.36 0.26 0.23 0.21 0.21 0.29 0.34 0.38 0.42 0.42 0.53 0.51 0.48 0.56 0.57 0.55 0.59 0.70 0.83 1.09 1.36 1.55 1.69
0.02 0.02 0.03 0.03 0.04 0.05 0.07 0.08 0.09 0.11 0.12 0.11 0.11 0.12 0.10 0.10 0.16 0.33 0.56 0.66 0.52 0.33 0.26 0.20 0.20 0.27 0.32 0.37 0.38 0.41 0.44 0.46 0.47 0.48 0.44 0.44 0.51 0.61 0.74 0.92 1.14 1.31 1.40
0.03 0.03 0.03 0.04 0.05 0.06 0.06 0.08 0.09 0.11 0.14 0.14 0.14 0.12 0.11 0.12 0.19 0.34 0.36 0.40 0.45 0.39 0.37 0.35 0.29 0.31 0.31 0.25 0.25 0.31 0.33 0.33 0.41 0.44 0.38 0.35 0.42 0.55 0.64 0.75 0.88 1.07 1.19
0.04 0.03 0.04 0.05 0.06 0.07 0.07 0.07 0.09 0.11 0.21 0.23 0.20 0.16 0.14 0.17 0.31 0.47 0.37 0.28 0.34 0.39 0.41 0.39 0.35 0.32 0.25 0.18 0.17 0.17 0.19 0.25 0.33 0.38 0.34 0.30 0.33 0.43 0.56 0.69 0.84 0.99 1.17
0.05 0.05 0.06 0.06 0.08 0.09 0.09 0.08 0.09 0.10 0.23 0.33 0.26 0.26 0.32 0.44 0.50 0.57 0.50 0.42 0.46 0.52 0.50 0.45 0.34 0.28 0.25 0.20 0.15 0.12 0.13 0.19 0.24 0.27 0.29 0.30 0.33 0.41 0.49 0.61 0.82 0.97 1.13
0.07 0.07 0.08 0.09 0.09 0.09 0.11 0.12 0.13 0.13 0.16 0.17 0.19 0.25 0.28 0.46 0.47 0.40 0.39 0.38 0.45 0.51 0.50 0.46 0.31 0.23 0.21 0.19 0.17 0.14 0.12 0.14 0.16 0.21 0.27 0.31 0.35 0.42 0.48 0.55 0.73 0.93 1.04
0.08 0.10 0.12 0.11 0.10 0.10 0.11 0.14 0.16 0.16 0.16 0.14 0.14 0.17 0.24 0.34 0.34 0.30 0.31 0.30 0.31 0.32 0.35 0.29 0.21 0.19 0.17 0.16 0.16 0.15 0.13 0.10 0.14 0.20 0.24 0.27 0.32 0.38 0.45 0.52 0.62 0.77 0.91
0.10 0.13 0.15 0.13 0.13 0.13 0.14 0.16 0.17 0.18 0.18 0.15 0.13 0.14 0.19 0.24 0.25 0.26 0.28 0.31 0.27 0.20 0.19 0.19 0.19 0.18 0.18 0.18 0.17 0.16 0.15 0.14 0.16 0.18 0.19 0.22 0.28 0.36 0.41 0.45 0.53 0.68 0.81
0.13 0.15 0.17 0.16 0.16 0.16 0.16 0.17 0.17 0.17 0.17 0.15 0.13 0.17 0.21 0.22 0.21 0.21 0.23 0.25 0.23 0.18 0.16 0.16 0.17 0.19 0.19 0.18 0.17 0.17 0.16 0.16 0.15 0.17 0.18 0.18 0.23 0.32 0.36 0.39 0.46 0.57 0.73
0.15 0.20 0.21 0.20 0.19 0.19 0.18 0.19 0.20 0.21 0.20 0.18 0.16 0.16 0.26 0.31 0.27 0.22 0.20 0.21 0.22 0.19 0.16 0.17 0.17 0.18 0.19 0.19 0.19 0.19 0.19 0.17 0.15 0.17 0.17 0.17 0.20 0.27 0.32 0.35 0.42 0.51 0.61
0.18 0.19 0.22 0.22 0.20 0.21 0.22 0.23 0.25 0.27 0.26 0.21 0.15 0.15 0.33 0.40 0.30 0.21 0.20 0.21 0.23 0.22 0.21 0.20 0.20 0.20 0.20 0.20 0.20 0.19 0.18 0.16 0.14 0.15 0.16 0.16 0.18 0.22 0.24 0.30 0.36 0.43 0.52
0.20 0.21 0.23 0.23 0.24 0.25 0.27 0.26 0.28 0.29 0.26 0.24 0.18 0.16 0.23 0.24 0.21 0.20 0.20 0.19 0.20 0.22 0.23 0.26 0.24 0.21 0.22 0.24 0.24 0.24 0.20 0.16 0.13 0.15 0.16 0.16 0.17 0.19 0.20 0.24 0.29 0.36 0.44
0.22 0.25 0.27 0.26 0.25 0.29 0.30 0.26 0.27 0.28 0.27 0.24 0.23 0.21 0.20 0.21 0.20 0.20 0.20 0.20 0.21 0.21 0.21 0.24 0.26 0.22 0.19 0.20 0.22 0.25 0.25 0.19 0.16 0.18 0.21 0.19 0.17 0.17 0.18 0.22 0.24 0.32 0.41
0.25 0.28 0.30 0.30 0.30 0.30 0.31 0.31 0.29 0.29 0.29 0.27 0.25 0.23 0.22 0.21 0.20 0.19 0.18 0.18 0.19 0.20 0.20 0.24 0.25 0.23 0.21 0.21 0.20 0.19 0.19 0.18 0.21 0.24 0.24 0.25 0.22 0.19 0.20 0.23 0.24 0.29 0.37
0.27 0.29 0.32 0.34 0.36 0.36 0.35 0.34 0.31 0.30 0.29 0.27 0.25 0.24 0.22 0.21 0.19 0.17 0.16 0.16 0.17 0.17 0.17 0.20 0.24 0.25 0.22 0.20 0.18 0.17 0.17 0.21 0.27 0.37 0.44 0.42 0.32 0.24 0.24 0.27 0.27 0.29 0.36
0.27 0.29 0.33 0.37 0.39 0.40 0.41 0.40 0.36 0.33 0.32 0.28 0.26 0.26 0.25 0.24 0.21 0.19 0.18 0.19 0.21 0.19 0.18 0.19 0.21 0.24 0.22 0.20 0.18 0.18 0.20 0.24 0.31 0.39 0.53 0.60 0.46 0.32 0.28 0.31 0.29 0.31 0.36